Nashville, TN

12:12 AM CDT on September 25, 2016 (GMT -0500)
Nashville International

Weather History for KBNA - December, 2013

Change the Weather History Date:

Monday, December 9, 2013

  Actual Average Record
Temperature  
Mean Temperature 35 °F 42 °F  
Max Temperature 39 °F 51 °F 73 °F (2007)
Min Temperature 30 °F 33 °F 0 °F (1917)
Degree Days  
Heating Degree Days 30    
Month to date heating degree days 178  
Since 1 July heating degree days 912  
Cooling Degree Days 0    
Month to date cooling degree days 2  
Year to date cooling degree days 1733  
Moisture  
Dew Point 30 °F    
Average Humidity 86    
Maximum Humidity 100    
Minimum Humidity 72    
Precipitation  
Precipitation 0.05 in 0.16 in 2.78 in (2008)
Month to date precipitation 5.04 1.39  
Year to date precipitation 51.94 44.40  
Snow  
Snow T in - - ()
Month to date snowfall T  
Snow Depth 0.00 in    
Sea Level Pressure  
Sea Level Pressure 30.20 in    
Wind  
Wind Speed 7 mph (NNW)    
Max Wind Speed 14 mph    
Max Gust Speed 22 mph    
Visibility 8 miles    
Events Rain , Snow    
T = Trace of Precipitation, MM = Missing Value Source: NWS Daily Summary

Daily Weather History Graph

Daily Weather History Graph

Search for Another Location

Airport or City:

Trip Planner

Search our weather history database for the weather conditions in past years. The results will help you decide how hot, cold, wet, or windy it might be!

Date:

Astronomy

Dec. 09, 2013 Rise Set
Actual Time 6:46 AM CST 4:32 PM CST
Civil Twilight 6:17 AM CST 5:00 PM CST
Nautical Twilight 5:45 AM CST 5:32 PM CST
Astronomical Twilight 5:14 AM CST 6:03 PM CST
Moon 11:49 AM CST (12/9) No Moon Set
Length of Visible Light 10h 43m
Length of Day
9h 46m
Waxing Crescent, 51% of the Moon is Illuminated
Dec 9
Waxing Crescent
Dec 17
Full
Dec 25
Last Quarter
Jan 1
New
Jan 7
First Quarter

Hourly Weather History & Observations

Time (CST) Temp. Windchill Dew Point Humidity Pressure Visibility Wind Dir Wind Speed Gust Speed Precip Events Conditions
12:05 AM 37.4 °F 33.8 °F 37.4 °F 100% 30.10 in 0.5 mi NW 4.6 mph - N/A   Overcast
12:53 AM 37.9 °F 35.5 °F 37.0 °F 97% 30.11 in 0.5 mi NW 3.5 mph - 0.02 in Rain Light Rain
1:53 AM 39.0 °F 35.7 °F 37.0 °F 93% 30.12 in 0.5 mi NW 4.6 mph - 0.01 in   Overcast
2:03 AM 37.4 °F 34.9 °F 37.4 °F 100% 30.11 in 2.0 mi WNW 3.5 mph - N/A   Overcast
2:37 AM 37.4 °F 34.9 °F 37.4 °F 100% 30.12 in 2.0 mi NW 3.5 mph - N/A   Overcast
2:53 AM 37.9 °F 33.5 °F 36.0 °F 93% 30.13 in 2.0 mi NNW 5.8 mph - N/A   Overcast
2:57 AM 37.4 °F 32.1 °F 35.6 °F 93% 30.12 in 6.0 mi NW 6.9 mph - N/A   Overcast
3:53 AM 37.0 °F 31.0 °F 34.0 °F 89% 30.15 in 10.0 mi WNW 8.1 mph - N/A   Overcast
3:58 AM 37.4 °F 32.1 °F 33.8 °F 87% 30.15 in 10.0 mi WNW 6.9 mph - N/A   Overcast
4:53 AM 36.0 °F 29.0 °F 33.1 °F 89% 30.19 in 10.0 mi NW 9.2 mph - N/A   Overcast
5:53 AM 35.1 °F 28.6 °F 32.0 °F 89% 30.20 in 10.0 mi NW 8.1 mph - N/A   Overcast
6:53 AM 35.1 °F 30.1 °F 30.0 °F 82% 30.22 in 10.0 mi NNW 5.8 mph - N/A   Overcast
7:53 AM 34.0 °F 28.0 °F 30.0 °F 85% 30.23 in 10.0 mi NNW 6.9 mph - N/A   Overcast
8:34 AM 33.8 °F 29.6 °F 30.2 °F 87% 30.23 in 10.0 mi WNW 4.6 mph - N/A   Overcast
8:53 AM 35.1 °F 28.6 °F 30.9 °F 85% 30.24 in 10.0 mi North 8.1 mph - N/A   Overcast
9:53 AM 35.1 °F - 30.9 °F 85% 30.25 in 10.0 mi Calm Calm - N/A   Overcast
10:53 AM 35.1 °F 32.2 °F 30.0 °F 82% 30.25 in 10.0 mi North 3.5 mph - N/A   Overcast
11:53 AM 35.1 °F - 30.0 °F 82% 30.25 in 10.0 mi Calm Calm - N/A   Overcast
12:23 PM 35.6 °F 29.2 °F 28.4 °F 75% 30.25 in 10.0 mi NW 8.1 mph - N/A   Overcast
12:53 PM 35.1 °F 28.6 °F 28.9 °F 78% 30.25 in 10.0 mi NNW 8.1 mph - N/A   Overcast
1:53 PM 34.0 °F 28.0 °F 27.0 °F 75% 30.25 in 10.0 mi NW 6.9 mph - N/A   Overcast
2:29 PM 33.8 °F 28.6 °F 26.6 °F 75% 30.23 in 10.0 mi North 5.8 mph - N/A   Overcast
2:53 PM 34.0 °F 28.0 °F 27.0 °F 75% 30.25 in 10.0 mi NNE 6.9 mph - N/A   Overcast
3:53 PM 34.0 °F 31.0 °F 26.1 °F 73% 30.25 in 10.0 mi North 3.5 mph - N/A   Overcast
4:53 PM 33.1 °F 25.5 °F 26.1 °F 75% 30.25 in 10.0 mi North 9.2 mph - N/A   Overcast
5:53 PM 33.1 °F 26.1 °F 26.1 °F 75% 30.25 in 10.0 mi North 8.1 mph - N/A   Overcast
6:53 PM 32.0 °F 25.6 °F 26.1 °F 79% 30.23 in 10.0 mi NNE 6.9 mph - N/A   Overcast
7:53 PM 32.0 °F 25.6 °F 26.1 °F 79% 30.22 in 10.0 mi NNE 6.9 mph - N/A   Overcast
8:53 PM 32.0 °F 25.6 °F 26.1 °F 79% 30.21 in 10.0 mi North 6.9 mph - N/A   Overcast
9:53 PM 32.0 °F 24.8 °F 25.0 °F 75% 30.21 in 10.0 mi North 8.1 mph - N/A   Overcast
10:53 PM 32.0 °F 23.6 °F 25.0 °F 75% 30.19 in 10.0 mi North 10.4 mph 21.9 mph N/A   Overcast
11:15 PM 30.2 °F 21.3 °F 24.8 °F 80% 30.18 in 9.0 mi North 10.4 mph - 0.00 in Snow Light Ice Pellets
11:46 PM 30.2 °F 22.6 °F 24.8 °F 80% 30.17 in 9.0 mi North 8.1 mph - 0.02 in Snow Light Snow
11:53 PM 30.0 °F 20.0 °F 25.0 °F 82% 30.18 in 9.0 mi North 12.7 mph - 0.02 in Snow Light Snow